When you browse on this site, cookies collect data to enhance your experience and personalize the content and advertising you see.
Visit our Privacy Policy to learn more. By continuing to use the site, you agree to this use of cookies and data.
  • In Österreich
  • Länderverzeichnis
  • Für 7 Tage
  • Wassertemperatur
  • Satellitenkarten
  • Wetterkarte
  • News
  • Widgets
  • user-avatar
    Anmelden

    Stündliche Wetter Cottage Grove

    Heute, 25 Juni, Dienstag

    Zeit Temperatur Niederschläge Wind Luftdruck Luftfeuchtigkeit
    00:00 +16°C° 0 mm 2 m/S 731 mmHg 88%
    01:00 +16°C° 0 mm 2 m/S 731 mmHg 88%
    02:00 +16°C° 0 mm 2 m/S 731 mmHg 88%
    03:00 +16°C° 0 mm 3 m/S 731 mmHg 88%
    04:00 +16°C° 0 mm 3 m/S 731 mmHg 88%
    05:00 +17°C° 0 mm 4 m/S 732 mmHg 87%
    06:00 +17°C° 0 mm 4 m/S 732 mmHg 87%
    07:00 +19°C° 0 mm 4 m/S 732 mmHg 82%
    08:00 +20°C° 0 mm 4 m/S 732 mmHg 77%
    09:00 +22°C° 0 mm 4 m/S 733 mmHg 72%
    10:00 +23°C° 0 mm 5 m/S 733 mmHg 67%
    11:00 +26°C° 0 mm 5 m/S 733 mmHg 62%
    12:00 +27°C° 0 mm 6 m/S 733 mmHg 57%
    13:00 +27°C° 0 mm 6 m/S 733 mmHg 57%
    14:00 +27°C° 0 mm 6 m/S 734 mmHg 57%
    15:00 +27°C° 0 mm 6 m/S 734 mmHg 57%
    16:00 +27°C° 0 mm 5 m/S 734 mmHg 61%
    17:00 +26°C° 0 mm 5 m/S 734 mmHg 64%
    18:00 +25°C° 0 mm 4 m/S 734 mmHg 68%
    19:00 +23°C° 0 mm 4 m/S 735 mmHg 69%
    20:00 +22°C° 0 mm 3 m/S 735 mmHg 71%
    21:00 +20°C° 0 mm 3 m/S 736 mmHg 72%
    22:00 +19°C° 0 mm 3 m/S 736 mmHg 74%
    23:00 +19°C° 0 mm 3 m/S 736 mmHg 77%

    Morgen, 26 Juni, Mittwoch

    Zeit Temperatur Niederschläge Wind Luftdruck Luftfeuchtigkeit
    00:00 +18°C° 0 mm 2 m/S 736 mmHg 79%
    01:00 +17°C° 0 mm 2 m/S 737 mmHg 80%
    02:00 +17°C° 0 mm 2 m/S 737 mmHg 81%
    03:00 +16°C° 0 mm 2 m/S 737 mmHg 83%
    04:00 +17°C° 0 mm 2 m/S 737 mmHg 82%
    05:00 +18°C° 0 mm 1 m/S 738 mmHg 81%
    06:00 +19°C° 0 mm 1 m/S 738 mmHg 81%
    07:00 +20°C° 0 mm 2 m/S 739 mmHg 77%
    08:00 +23°C° 0 mm 2 m/S 739 mmHg 74%
    09:00 +24°C° 0 mm 3 m/S 739 mmHg 70%
    10:00 +25°C° 0.2 mm 3 m/S 739 mmHg 67%
    11:00 +26°C° 0.2 mm 3 m/S 739 mmHg 64%
    12:00 +27°C° 0.2 mm 3 m/S 740 mmHg 61%
    13:00 +27°C° 0.1 mm 2 m/S 739 mmHg 61%
    14:00 +27°C° 0.1 mm 2 m/S 739 mmHg 61%
    15:00 +28°C° 0.1 mm 2 m/S 739 mmHg 60%
    16:00 +28°C° 0 mm 2 m/S 739 mmHg 64%
    17:00 +28°C° 0 mm 2 m/S 739 mmHg 68%
    18:00 +27°C° 0 mm 2 m/S 739 mmHg 71%
    19:00 +26°C° 0 mm 2 m/S 739 mmHg 74%
    20:00 +25°C° 0 mm 2 m/S 739 mmHg 77%
    21:00 +24°C° 0 mm 3 m/S 739 mmHg 80%
    22:00 +22°C° 0.8 mm 3 m/S 739 mmHg 83%
    23:00 +21°C° 0.8 mm 3 m/S 739 mmHg 87%

    übermorgen, 27 Juni, Donnerstag

    Zeit Temperatur Niederschläge Wind Luftdruck Luftfeuchtigkeit
    00:00 +21°C° 0.8 mm 3 m/S 739 mmHg 90%
    01:00 +20°C° 0.8 mm 2 m/S 739 mmHg 92%
    02:00 +20°C° 0.8 mm 2 m/S 739 mmHg 94%
    03:00 +21°C° 0.8 mm 1 m/S 739 mmHg 96%
    04:00 +21°C° 0 mm 1 m/S 739 mmHg 96%
    05:00 +22°C° 0 mm 1 m/S 740 mmHg 95%
    06:00 +23°C° 0 mm 1 m/S 740 mmHg 95%
    07:00 +24°C° 0.1 mm 1 m/S 740 mmHg 92%
    08:00 +25°C° 0.1 mm 1 m/S 740 mmHg 89%
    09:00 +26°C° 0.1 mm 1 m/S 740 mmHg 86%
    10:00 +27°C° 0.1 mm 2 m/S 740 mmHg 84%
    11:00 +28°C° 0.1 mm 2 m/S 740 mmHg 82%
    12:00 +29°C° 0.1 mm 3 m/S 739 mmHg 80%
    13:00 +29°C° 1.4 mm 3 m/S 739 mmHg 81%
    14:00 +28°C° 1.4 mm 3 m/S 739 mmHg 83%
    15:00 +28°C° 1.4 mm 3 m/S 739 mmHg 85%
    16:00 +27°C° 3.5 mm 3 m/S 739 mmHg 85%
    17:00 +25°C° 3.5 mm 3 m/S 739 mmHg 85%
    18:00 +24°C° 3.5 mm 3 m/S 739 mmHg 85%
    19:00 +23°C° 0.1 mm 2 m/S 739 mmHg 84%
    20:00 +22°C° 0.1 mm 1 m/S 739 mmHg 83%
    21:00 +22°C° 0.1 mm 1 m/S 739 mmHg 83%
    22:00 +21°C° 0 mm 1 m/S 739 mmHg 84%
    23:00 +21°C° 0 mm 1 m/S 739 mmHg 86%

    28 Juni, Freitag

    Zeit Temperatur Niederschläge Wind Luftdruck Luftfeuchtigkeit
    00:00 +21°C° 0 mm 1 m/S 739 mmHg 87%
    01:00 +20°C° 0 mm 1 m/S 739 mmHg 88%
    02:00 +20°C° 0 mm 1 m/S 739 mmHg 88%
    03:00 +18°C° 0 mm 0 m/S 740 mmHg 88%
    04:00 +18°C° 0 mm 0 m/S 740 mmHg 88%
    05:00 +21°C° 0 mm 1 m/S 739 mmHg 88%
    06:00 +21°C° 0 mm 1 m/S 739 mmHg 88%
    07:00 +23°C° 0 mm 2 m/S 740 mmHg 85%
    08:00 +24°C° 0 mm 2 m/S 740 mmHg 82%
    09:00 +26°C° 0 mm 3 m/S 740 mmHg 80%
    10:00 +27°C° 0 mm 3 m/S 740 mmHg 76%
    11:00 +28°C° 0 mm 3 m/S 740 mmHg 72%
    12:00 +30°C° 0 mm 3 m/S 740 mmHg 68%
    13:00 +30°C° 0 mm 3 m/S 740 mmHg 67%
    14:00 +30°C° 0 mm 3 m/S 740 mmHg 67%
    15:00 +31°C° 0 mm 3 m/S 740 mmHg 67%
    16:00 +31°C° 0 mm 3 m/S 740 mmHg 71%
    17:00 +30°C° 0 mm 3 m/S 740 mmHg 75%
    18:00 +30°C° 0 mm 3 m/S 739 mmHg 80%
    19:00 +29°C° 0 mm 3 m/S 739 mmHg 83%
    20:00 +28°C° 0 mm 3 m/S 740 mmHg 86%
    21:00 +26°C° 0 mm 3 m/S 740 mmHg 90%
    22:00 +26°C° 0 mm 3 m/S 740 mmHg 91%
    23:00 +26°C° 0 mm 2 m/S 740 mmHg 92%

    29 Juni, Samstag

    Zeit Temperatur Niederschläge Wind Luftdruck Luftfeuchtigkeit
    00:00 +25°C° 0 mm 2 m/S 739 mmHg 93%
    01:00 +25°C° 0 mm 2 m/S 739 mmHg 93%
    02:00 +25°C° 0 mm 2 m/S 739 mmHg 94%
    03:00 +25°C° 0 mm 2 m/S 739 mmHg 94%
    04:00 +25°C° 0 mm 2 m/S 739 mmHg 94%
    05:00 +25°C° 0 mm 2 m/S 739 mmHg 94%
    06:00 +25°C° 0 mm 2 m/S 739 mmHg 93%
    07:00 +27°C° 0 mm 2 m/S 739 mmHg 90%
    08:00 +29°C° 0 mm 2 m/S 739 mmHg 87%
    09:00 +30°C° 0 mm 2 m/S 739 mmHg 84%
    10:00 +33°C° 0 mm 3 m/S 739 mmHg 80%
    11:00 +34°C° 0 mm 3 m/S 739 mmHg 75%
    12:00 +35°C° 0 mm 4 m/S 739 mmHg 71%
    13:00 +36°C° 0.2 mm 4 m/S 738 mmHg 70%
    14:00 +36°C° 0.2 mm 4 m/S 738 mmHg 69%
    15:00 +36°C° 0.2 mm 4 m/S 738 mmHg 67%
    16:00 +36°C° 0.3 mm 4 m/S 737 mmHg 70%
    17:00 +35°C° 0.3 mm 3 m/S 737 mmHg 73%
    18:00 +35°C° 0.3 mm 3 m/S 737 mmHg 76%
    19:00 +33°C° 0 mm 3 m/S 737 mmHg 79%
    20:00 +31°C° 0 mm 3 m/S 737 mmHg 81%
    21:00 +29°C° 0 mm 3 m/S 737 mmHg 83%
    22:00 +29°C° 0 mm 3 m/S 737 mmHg 85%
    23:00 +28°C° 0 mm 3 m/S 737 mmHg 86%

    30 Juni, Sonntag

    Zeit Temperatur Niederschläge Wind Luftdruck Luftfeuchtigkeit
    00:00 +27°C° 0 mm 4 m/S 737 mmHg 88%
    01:00 +27°C° 0 mm 3 m/S 737 mmHg 89%
    02:00 +27°C° 0 mm 3 m/S 737 mmHg 89%
    03:00 +26°C° 0 mm 3 m/S 737 mmHg 90%
    04:00 +26°C° 0 mm 3 m/S 737 mmHg 90%
    05:00 +26°C° 0 mm 3 m/S 737 mmHg 89%
    06:00 +26°C° 0 mm 4 m/S 737 mmHg 89%
    07:00 +27°C° 0 mm 3 m/S 737 mmHg 85%
    08:00 +29°C° 0 mm 3 m/S 737 mmHg 81%
    09:00 +30°C° 0 mm 3 m/S 737 mmHg 77%
    10:00 +31°C° 0 mm 3 m/S 737 mmHg 74%
    11:00 +33°C° 0 mm 3 m/S 737 mmHg 71%
    12:00 +34°C° 0 mm 3 m/S 737 mmHg 68%
    13:00 +34°C° 0.2 mm 3 m/S 737 mmHg 69%
    14:00 +34°C° 0.2 mm 4 m/S 737 mmHg 69%
    15:00 +34°C° 0.2 mm 4 m/S 736 mmHg 70%
    16:00 +34°C° 0.7 mm 3 m/S 736 mmHg 71%
    17:00 +33°C° 0.7 mm 3 m/S 736 mmHg 72%
    18:00 +32°C° 0.7 mm 2 m/S 736 mmHg 74%
    19:00 +30°C° 0.3 mm 1 m/S 736 mmHg 76%
    20:00 +29°C° 0.3 mm 1 m/S 737 mmHg 78%
    21:00 +27°C° 0.3 mm 1 m/S 737 mmHg 81%
    22:00 +27°C° 1 mm 1 m/S 737 mmHg 80%
    23:00 +26°C° 1 mm 2 m/S 737 mmHg 79%
    Mehr zeigen